カタログに戻る

DELTA 1 DEB

運用中SSO
NORAD 7132·DEBRIS·🇺🇸 United States

打ち上げ Nov 6, 1973 から Vandenberg Space Force Base

Loading…

次のパス (今後24時間)

TLE

最新Source: Space-Track

元期: Sep 14, 2026, 10:54 UTC

1 07132U 73086CW  26257.45471205  .00000049  00000-0  70185-3 0  9994
2 07132 102.2299 240.0826 0020106 188.8266 323.3302 12.41409013390766

AllMySatでDELTA 1 DEBをリアルタイム追跡

Download on the App Store